DELTA 1 DEB, 7042

Orbit data source: Space-Track

DELTA 1 DEB, 7042 is space debris in SSO originally from a launch on Tue, 06 Nov 1973 UTC launched from the Air Force Western Test Range (AFWTR). Debris objects in space refer to the collection of defunct objects orbiting the Earth. Examples of debris include non-operational satellites, rocket bodies, and fragments generated from explosions, collisions, or faulty payload assembly.

Loading next visibility...
Identifier
7042, 1973-086AJ
Orbit
SSO
Last TLE update
16 hours ago
Origin
Manufacturer
Unknown
Mission
Spacecraft
Bus & Motor
Unknown
Mass
Unknown
Launch date (UTC)
1973-11-06 (52 years ago)
Launch vehicle
Unknown
Launch site
Air Force Western Test Range (AFWTR)
Object type
Payload
Rocket body
Debris
Shape & HBR
Unknown
Radar Cross Section
Small (<0.1 m²)

Expand to show TLE details & history

TLE from 16 hours ago
0 DELTA 1 DEB
1 07042U 73086AJ  25182.46214897  .00000712  00000-0  91987-3 0  9993
2 07042 101.7509   5.8667 0318358 159.0141 202.4394 13.47707085514982
Epoch: 2025-07-01T11:05Z
TLE epoch observation values (Epoch: 2025-07-01T11:05:29.671Z)
Latitude
Longitude
-80.26419°
Altitude
1,303.989 km
Speed
7.097 km/s
True Right ascension
00h 23m 28s
True Declination
0° 00' 00"
Sunlit
Object was in daylight at epoch
Visualization orbit readout
Latitude
-75.64101°
Longitude
-25.55091°
Altitude
1,224.362 km
Speed
7.185 km/s
Apparent Right ascension
02h 50m 27s
Apparent Declination
-59° 43' 43"
Sunlit
Object is in daylight
Visualization observer readout
Local Sidereal Time
14:23:06
Azimuth
189.972° SSW
Elevation
-69.728°
Doppler factor
1
Orbital elements
Apogee altitude
1,315.499 km
Perigee altitude
840.747 km
Semi-major axis
7,456.26 km
Eccentricity
0.03184
Inclination
101.7509°
RAAN
5.8667°
Arg. of periapsis
159.0141°
True anomaly
Unknown
Mean anomaly
202.4394°
Eccentric anomaly
Unknown
Mean motion
3.37102 °/min
Orbital period
106.79 mins
BSTAR
0.00091987
Loading maneuver chart data...
Loading SW <> Apogee altitude chart data...
Loading historical data...
Loading historical data...
Loading historical data...
Loading historical data...
Loading historical data...
Loading historical data...
Loading historical data...

DELTA 1 DEB Visibility forecast

Observer location: undefined°, undefined°

Span
Click to sort rows by Start time (UTC) header in descending order
Start Az.
Max El. time (UTC)
Max El. Az.
Max El.
End time (UTC)
End Az.
8 mins2025-07-02 10:25:59.684Z97.095° ESE2025-07-02 10:29:59.684Z59.628° ENE19.65°2025-07-02 10:33:59.684Z18.452° NNE
12 mins2025-07-02 12:08:59.684Z166.94° S2025-07-02 12:14:59.684Z289.395° WNW44.247°2025-07-02 12:20:59.684Z339.805° N
4 mins2025-07-02 13:58:59.684Z255.642° W2025-07-02 13:59:59.684Z264.362° W12.667°2025-07-02 14:02:59.684Z290.445° WNW
9 mins2025-07-03 01:07:59.684Z26.328° NE2025-07-03 01:11:59.684Z124.759° SE42.653°2025-07-03 01:16:59.684Z189.101° SSW
|